Redmond, OR

6:21 PM PDT on September 22, 2017 (GMT -0700)
Roberts Field Airport

Weather History for KRDM - November, 2011

Change the Weather History Date:

Wednesday, November 23, 2011

  Actual Average Record
Temperature  
Mean Temperature 48 °F 35 °F  
Max Temperature 57 °F 46 °F 65 °F (1959)
Min Temperature 38 °F 24 °F -8 °F (1985)
Degree Days  
Heating Degree Days 17 30  
Month to date heating degree days 658 609  
Since 1 July heating degree days 1496 1554  
Cooling Degree Days 0 0  
Month to date cooling degree days 0 0  
Year to date cooling degree days 155 222  
Moisture  
Dew Point 28 °F    
Average Humidity 50    
Maximum Humidity 64    
Minimum Humidity 35    
Precipitation  
Precipitation 0.00 in 0.04 in 0.64 in (1961)
Month to date precipitation 0.21 0.72  
Year to date precipitation 5.89 7.50  
Sea Level Pressure  
Sea Level Pressure 29.67 in    
Wind  
Wind Speed 12 mph (SSW)    
Max Wind Speed 28 mph    
Max Gust Speed 38 mph    
Visibility 10 miles    
Events      
T = Trace of Precipitation, MM = Missing Value Source: NWS Daily Summary

Daily Weather History Graph

Daily Weather History Graph

Search for Another Location

Airport or City:

Trip Planner

Search our weather history database for the weather conditions in past years. The results will help you decide how hot, cold, wet, or windy it might be!

Date:

Astronomy

Nov. 23, 2011 Rise Set
Actual Time 7:10 AM PST 4:31 PM PST
Civil Twilight 6:38 AM PST 5:03 PM PST
Nautical Twilight 6:02 AM PST 5:38 PM PST
Astronomical Twilight 5:28 AM PST 6:13 PM PST
Moon 5:19 AM PST 3:17 PM PST
Length of Visible Light 10h 24m
Length of Day
9h 20m
Waning Crescent, 3% of the Moon is Illuminated
Nov 23
Waning Crescent
Nov 24
New
Dec 2
First Quarter
Dec 10
Full
Dec 17
Last Quarter

Hourly Weather History & Observations

Time (PST) Temp. Windchill Dew Point Humidity Pressure Visibility Wind Dir Wind Speed Gust Speed Precip Events Conditions
12:56 AM 46.9 °F - 28.0 °F 48% 29.70 in 10.0 mi SSW 9.2 mph 23.0 mph N/A   Clear
1:56 AM 46.0 °F 41.4 °F 25.0 °F 44% 29.69 in 10.0 mi SSE 9.2 mph 16.1 mph N/A   Clear
2:56 AM 46.0 °F 40.6 °F 25.0 °F 44% 29.67 in 10.0 mi SSE 11.5 mph 23.0 mph N/A   Clear
3:56 AM 46.9 °F - 26.1 °F 44% 29.66 in 10.0 mi SSE 12.7 mph - N/A   Clear
4:56 AM 46.0 °F 41.0 °F 26.1 °F 46% 29.65 in 10.0 mi SSE 10.4 mph 23.0 mph N/A   Partly Cloudy
5:56 AM 45.0 °F 39.3 °F 25.0 °F 46% 29.64 in 10.0 mi SSE 11.5 mph 19.6 mph N/A   Clear
6:56 AM 45.0 °F 39.3 °F 25.0 °F 46% 29.63 in 10.0 mi SSE 11.5 mph - N/A   Clear
7:56 AM 46.0 °F 38.8 °F 26.1 °F 46% 29.63 in 10.0 mi South 18.4 mph 27.6 mph N/A   Clear
8:56 AM 48.9 °F - 27.0 °F 43% 29.63 in 10.0 mi South 17.3 mph 27.6 mph N/A   Clear
9:56 AM 50.0 °F - 28.0 °F 43% 29.63 in 10.0 mi SSW 19.6 mph 33.4 mph N/A   Clear
10:56 AM 54.0 °F - 28.9 °F 38% 29.62 in 10.0 mi South 20.7 mph 26.5 mph N/A   Clear
11:56 AM 55.0 °F - 28.9 °F 37% 29.58 in 10.0 mi South 16.1 mph 29.9 mph N/A   Clear
12:56 PM 54.0 °F - 28.0 °F 37% 29.56 in 10.0 mi SSW 21.9 mph 35.7 mph N/A   Clear
1:56 PM 54.0 °F - 28.0 °F 37% 29.55 in 10.0 mi SSW 19.6 mph 29.9 mph N/A   Clear
2:56 PM 53.1 °F - 28.9 °F 40% 29.57 in 10.0 mi SSW 15.0 mph 27.6 mph N/A   Scattered Clouds
3:56 PM 51.8 °F - 30.2 °F 44% 29.62 in 10.0 mi SW 12.7 mph - N/A   Overcast
4:56 PM 46.4 °F 40.7 °F 33.8 °F 62% 29.66 in 10.0 mi NW 12.7 mph - N/A   Overcast
5:56 PM 44.1 °F 38.6 °F 32.0 °F 63% 29.69 in 10.0 mi NW 10.4 mph - N/A   Overcast
6:56 PM 42.1 °F 36.1 °F 30.0 °F 62% 29.73 in 10.0 mi NW 10.4 mph - N/A   Overcast
7:56 PM 42.1 °F 38.4 °F 30.0 °F 62% 29.75 in 10.0 mi NNW 5.8 mph - N/A   Overcast
8:56 PM 39.9 °F 37.8 °F 28.9 °F 65% 29.78 in 10.0 mi North 3.5 mph - N/A   Overcast
9:56 PM 39.0 °F 35.7 °F 28.9 °F 67% 29.80 in 10.0 mi NNW 4.6 mph - N/A   Overcast
10:56 PM 39.0 °F - 28.0 °F 65% 29.80 in 10.0 mi Calm Calm - N/A   Overcast
11:56 PM 37.4 °F 34.9 °F 28.4 °F 70% 29.79 in 10.0 mi East 3.5 mph - N/A   Overcast